Tracking 28790 objects as of 18-Apr-2024
HD Live streaming from Space Station
objects crossing your sky now

FENGYUN 1C DEB

Track FENGYUN 1C DEB now!
10-day predictions


NORAD ID: 31921
Int'l Code: 1999-025CLY
Perigee: 845.1 km
Apogee: 1,151.4 km
Inclination: 99.4 °
Period: 104.9 minutes
Semi major axis: 7369 km
RCS: 0.0067 m2 (small)
Launch date: May 10, 1999
Source: People's Republic of China (PRC)
Launch site: Taiyaun Space Center, China (TSC)

Note: This is SATELLITE DEBRIS
Your satellite tracking list
Your tracking list is empty




NASA's NSSDC Master Catalog

Two Line Element Set (TLE):
1 31921U 99025CLY 24101.47442330  .00001617  00000-0  15567-2 0  9997
2 31921  99.3723   0.5207 0207879  64.6987 297.5539 13.72360295839129
Source of the keplerian elements: AFSPC